Tracking 31032 objects as of 14-Jul-2025
HD Live streaming from Space Station
objects crossing your sky now

TITAN 3C TRANSTAGE DEB

Track TITAN 3C TRANSTAGE DEB now!
10-day predictions


NORAD ID: 1668
Int'l Code: 1965-082AF
Perigee: 622.9 km
Apogee: 642.8 km
Inclination: 32.1 °
Period: 97.2 minutes
Semi major axis: 7003 km
RCS: 2.8531 m2 (large)
Launch date: October 15, 1965
Source: United States (US)
Launch site: AIR FORCE EASTERN TEST RANGE (AFETR)

Note: This is SATELLITE DEBRIS
Your satellite tracking list
Your tracking list is empty




NASA's NSSDC Master Catalog

Two Line Element Set (TLE):
1  1668U 65082AF  25194.82192684  .00001204  00000-0  14598-3 0  9990
2  1668  32.0678  81.4013 0014234  75.9397 284.2833 14.81140236189255
Source of the keplerian elements: AFSPC